EDT,Max TemperatureF,Mean TemperatureF,Min TemperatureF,Max Dew PointF,MeanDew PointF,Min DewpointF,Max Humidity, Mean Humidity, Min Humidity, Max Sea Level PressureIn, Mean Sea Level PressureIn, Min Sea Level PressureIn, Max VisibilityMiles, Mean VisibilityMiles, Min VisibilityMiles, Max Wind SpeedMPH, Mean Wind SpeedMPH, Max Gust SpeedMPH,PrecipitationIn, CloudCover, Events, WindDirDegrees
2013-3-1,33,30,28,30,24,18,87,74,64,30.05,29.98,29.90,10,10,7,10,7,,0.00,8,,360
2013-3-2,30,28,26,22,20,19,84,75,64,30.07,30.02,29.99,10,6,2,13,9,,0.00,8,Snow,333
2013-3-3,30,27,23,19,18,14,81,72,51,30.09,30.05,30.01,10,8,2,10,6,,0.00,8,Snow,321
2013-3-4,39,27,15,25,17,12,88,65,38,30.19,30.13,30.07,10,10,9,8,1,,0.00,2,,277
2013-3-5,41,36,30,31,26,21,93,74,55,30.09,29.79,29.51,10,6,1,17,7,24,0.78,8,Rain-Snow,80
2013-3-6,37,35,33,31,30,26,92,82,73,30.22,29.88,29.51,10,7,1,15,8,,0.23,8,Snow,3
2013-3-7,41,36,30,30,27,26,82,72,61,30.37,30.31,30.21,10,8,4,9,6,17,0.00,7,,301
2013-3-8,45,36,28,28,26,23,88,69,48,30.49,30.43,30.34,10,10,8,9,5,,0.00,1,,16
2013-3-9,57,40,23,35,27,20,89,61,31,30.41,30.28,30.10,10,10,5,12,4,,0.00,1,,143
2013-3-10,71,58,46,34,30,27,46,35,22,30.12,30.00,29.88,10,10,10,16,8,22,0.00,1,,170
2013-3-11,63,53,41,50,40,31,93,66,32,29.88,29.76,29.62,10,8,1,22,13,32,0.48,7,Rain,214
2013-3-12,41,37,33,34,30,27,89,78,65,30.04,29.96,29.83,10,8,2,14,9,22,0.04,8,Snow,262
2013-3-13,33,30,26,30,23,17,93,74,61,30.28,30.09,29.98,10,6,0,21,10,31,0.02,7,Snow,291
2013-3-14,42,31,21,20,17,15,75,59,41,30.35,30.28,30.18,10,10,10,14,8,20,0.00,0,,274
2013-3-15,50,38,26,40,29,19,89,68,52,30.18,29.99,29.88,10,9,4,13,4,,0.06,3,Rain,250
2013-3-16,57,46,33,48,39,29,92,81,67,30.03,29.78,29.62,10,6,2,17,7,26,0.06,7,Rain,296
2013-3-17,37,34,32,28,26,24,85,73,59,30.20,30.12,30.04,10,10,8,13,7,,0.00,7,,69
2013-3-18,52,42,32,49,38,25,94,87,70,30.06,29.78,29.61,10,6,2,17,11,26,0.69,8,Rain-Thunderstorm,157
2013-3-19,42,34,30,34,23,14,79,59,38,30.07,29.92,29.80,10,10,10,24,14,43,0.00,5,,271
2013-3-20,39,32,24,18,15,9,66,51,38,30.06,30.00,29.93,10,10,10,20,11,31,0.00,4,,279
2013-3-21,30,24,18,19,13,9,86,68,47,30.03,29.97,29.92,10,7,1,13,7,21,0.00,7,Snow,299
2013-3-22,42,30,19,20,16,14,78,57,36,30.07,30.04,30.01,10,10,10,13,7,18,0.00,0,,274
2013-3-23,48,34,21,26,21,17,85,62,32,30.09,30.04,29.98,10,10,7,10,2,,0.00,2,,6
2013-3-24,36,33,30,31,26,20,93,77,54,29.94,29.65,29.44,10,6,0,20,9,26,0.32,6,Fog-Rain-Snow,80
2013-3-25,34,33,32,32,30,28,96,87,81,29.88,29.55,29.39,10,3,1,14,6,18,0.10,8,Snow,270
2013-3-26,42,36,32,30,28,22,89,74,53,30.19,30.03,29.87,10,9,3,14,9,17,0.00,8,Snow,315
2013-3-27,43,38,32,28,25,20,82,64,43,30.28,30.23,30.16,10,10,8,16,8,25,0.00,8,,291
2013-3-28,48,38,28,26,23,21,85,57,39,30.33,30.29,30.27,10,10,10,14,7,21,0.00,2,,302
2013-3-29,54,40,26,31,26,21,88,64,38,30.33,30.29,30.23,10,10,6,10,2,,0.00,2,,284
2013-3-30,57,41,25,37,25,19,89,59,25,30.27,30.16,29.98,10,8,3,7,1,,0.00,0,,173
2013-3-31,55,45,37,45,41,30,93,80,59,29.96,29.82,29.76,10,8,4,16,4,23,0.03,6,Rain,249